Location: Huntsville
(41.2590°N, 111.7678°W)
Time: 08:32:41
(UTC+00:00)

Envisat - Pass Details

Date: 11 December 2021
Orbit: 764 x 766 km, 98.2° (Epoch: 18 January)

Event Time Altitude Azimuth Distance (km) Brightness Sun altitude
Rises 00:45:04 0° 206° (SSW) 3,218 7.1 -8.7°
Reaches altitude 10° 00:48:02 10° 224° (SW) 2,298 6.7 -9.3°
Maximum altitude 00:51:33 19° 268° (W) 1,771 6.0 -9.9°
Drops below altitude 10° 00:55:06 10° 313° (NW) 2,309 5.8 -10.5°
Sets 00:58:06 0° 331° (NNW) 3,241 6.4 -11.0°
